STARLINK-4675, 53601

Orbit data source: Space-Track

STARLINK-4675, 53601 is a payload satellite owned by SpaceX/Seattle (US) in LEO that was launched on Sun, 28 Aug 2022 UTC via an FALCON 9 launch vehicle from the Air Force Eastern Test Range (AFETR). Payload-class satellites include a variety of spacecraft equipped with specific instruments for various scientific and technological missions. These include communications satellites like Starlink; space stations such as the ISS; scientific satellites like the Hubble; Earth observation satellites from companies like Planet Labs, Umbra, and HawkEye 360; GPS; miniature CubeSats for education and research; and military/defense satellites.

Loading next visibility...
Identifier
53601, 2022-104P
Orbit
LEO
Country
Flag of USUS
Related business
Manufacturer
SpaceX/Seattle
Mission
Operational Commercial Communications
Bus & Motor
STARLINK, Unknown motor
Mass
300 kg wet, ~290 kg dry
Launch date (UTC)
2022-08-28 (3 years ago)
Launch vehicle
FALCON 9
Launch site
Air Force Eastern Test Range (AFETR)
Object type
Payload
Rocket body
Debris
Shape & HBR
Box + 1 Pan, 10.1 m
Radar Cross Section
13.562 m², Large (>1 m²)

Expand to show TLE details & history
Last TLE update: 1 day ago

TLE from 1 day ago
0 STARLINK-4675
1 53601U 22104P   25299.79703398  .00001206  00000-0  93827-4 0  9999
2 53601  53.2167 125.0441 0001043  88.4925 271.6187 15.08836623175403
Epoch: 2025-10-26T19:07Z
TLE epoch observation values (Epoch: 2025-10-26T19:07:43.735Z)
Latitude
-0.00001°
Longitude
162.70378°
Altitude
540.631 km
Speed
7.593 km/s
True Right ascension
08h 20m 10s
True Declination
0° 00' 00"
Sunlit
Object was in daylight at epoch
Visualization orbit readout
Latitude
Unknown
Longitude
Unknown
Altitude
Unknown
Speed
Unknown
Apparent Right ascension
Unknown
Apparent Declination
Unknown
Sunlit
N/A
Visualization observer readout
Local Sidereal Time
20:23:21
Azimuth
Unknown
Elevation
Unknown
Doppler factor
Unknown
Orbital elements
Apogee altitude
540.72 km
Perigee altitude
539.277 km
Semi-major axis
6,918.136 km
Eccentricity
0.0001
Inclination
53.2167°
RAAN
125.0441°
Arg. of periapsis
88.4925°
True anomaly
271.60675°
Mean anomaly
271.6187°
Eccentric anomaly
271.61273°
Mean motion
3.77189 °/min
Orbital period
95.44 mins
BSTAR
0.000093827
Loading maneuver chart data...
Computing Atmospheric mass density...
Loading historical data...
Loading historical data...
Loading historical data...
Loading historical data...
Loading historical data...
Loading historical data...
Loading historical data...

Documentation

Showing up to 5 results
|